Regional Weather Roundup
Issued by NWS State College, PA

Home | Current Version | Previous Version | Text Only | Print | Product List | Glossary Off
Versions: 1 2 3 4 5 6 7 8 9 10 11 12 13 14 15 16 17 18 19 20 21 22 23 24 25 26 27 28 29 30 31 32 33 34 35 36 37 38 39 40 41 42 43 44 45 46 47 48 49 50

000
ASUS41 KCTP 060510
RWRCTP

REGIONAL WEATHER ROUNDUP
NATIONAL WEATHER SERVICE STATE COLLEGE PA
1200 AM EST FRI MAR 06 2015

Note: "fair" indicates few or no clouds below 12,000 feet with no
significant weather and/or obstructions to visibility.

* = STATION THAT DOES NOT REPORT PRECIPITATION /E.G. RAIN...SNOW...ETC/
    THUNDER OR FOG.

PAZ002>004-007>009-013>016-020>023-029>032-060600-
WESTERN PENNSYLVANIA

CITY           SKY/WX    TMP DP  RH WIND       PRES   REMARKS
ERIE           CLEAR      2  -5  72 S3        30.51S
MEADVILLE      PTCLDY     2  -4  76 W3        30.43S
FRANKLIN*      PTCLDY     0  -6  78 SW3       30.43S
NEW CASTLE     FAIR      -1  -5  83 CALM      30.51S
BEAVER COUNTY  NOT AVBL
BUTLER*        PTCLDY     1  -2  85 CALM      30.47F
PITTSBURGH INT PTCLDY     5  -2  72 CALM      30.48R
PITTSBURGH     CLEAR      7  -3  64 CALM      30.47R
INDIANA*       MOCLDY     0  -2  92 CALM      30.49R
LATROBE        CLEAR      1   0  92 CALM      30.50R
WASHINGTON CO* PTCLDY     0  -6  78 CALM      30.49S
$$

PAZ004>006-010>012-017>019-024>028-033>037-041-042-045-046-049>053-060600-
CENTRAL PENNSYLVANIA

CITY           SKY/WX    TMP DP  RH WIND       PRES   REMARKS
BRADFORD       CLOUDY     2  -5  72 NW8       30.33S WCI -12
DUBOIS         CLEAR      1  -5  75 W5        30.37S WCI  -9
CLEARFIELD     CLEAR      4  -5  66 NW6       30.41S WCI  -7
JOHNSTOWN      CLEAR      3  -5  69 NW13      30.32S WCI -14
ALTOONA        CLEAR      8  -3  61 NW10      30.40R WCI  -6
STATE COLLEGE  PTCLDY     9  -3  59 N7        30.42S WCI  -3
WILLIAMSPORT   CLEAR     12  -4  48 N5        30.47R WCI   4
SELINSGROVE    CLEAR     10  -1  61 NW6       30.46R WCI   0
FT INDIANTOWN  CLEAR     14  -1  52 NW6       30.43R WCI   5
CAPITAL CITY   CLEAR     17   1  49 NW9       30.45R WCI   6
HARRISBURG     CLEAR     18   1  47 NW13      30.44R WCI   5
YORK           CLEAR     13   1  59 NW5       30.43R WCI   5
$$

PAZ038>040-043-044-047-048-054-055-060>062-067>071-060600-
EASTERN PENNSYLVANIA

CITY           SKY/WX    TMP DP  RH WIND       PRES   REMARKS
SCRANTON       CLEAR     11  -2  56 N8        30.40R WCI  -1
MOUNT POCONO   CLEAR      6  -1  73 N15G28    30.26R WCI -12
ALLENTOWN      CLEAR     14   0  53 N10       30.43R WCI   1
QUAKERTOWN*    PTCLDY    16   3  57 N13G20    30.40S WCI   2
READING        CLEAR     14   3  61 N9        30.43R WCI   2
LANCASTER      CLEAR     14   3  61 N6        30.42R WCI   5
COATESVILLE    PTCLDY    18   5  57 N14G21    30.39R WCI   4
POTTSTOWN      PTCLDY    16   4  59 N9        30.43R WCI   4
BLUE BELL      MOCLDY    19  10  68 N3        30.40R
DOYLESTOWN     MOCLDY    14   5  67 N9        30.39R WCI   2
WILLOW GROVE   NOT AVBL
NORTH PHILA    CLOUDY    20   7  57 N17       30.42R WCI   5
PHILADELPHIA   CLOUDY    20   8  60 N10       30.43R WCI   9
$$


USA.gov is the U.S. government's official web portal to all federal, state and local government web resources and services.